Powrót do katalogu

ATLAS AGENA R/B

AktywnyMEO
NORAD 7964·ROCKET BODY·🇺🇸 United States

Wystrzelony Jun 18, 1975 z Cape Canaveral Space Force Station

Loading…

Następne Przeloty (najbliższe 24 godziny)

TLE

ŚwieżeSource: Space-Track

Epoka: Sep 14, 2026, 05:41 UTC

1 07964U 75055B   26257.23741770 -.00000023  00000-0  00000-0 0  9997
2 07964   9.4185 230.5967 1192949 148.4007 219.2038  1.02089468 27604

Śledź ATLAS AGENA R/B w czasie rzeczywistym z AllMySat

Download on the App Store